Погода Александровский Завод

Погода Александровский Завод : погода сейчас, прогноз погоды и архив. Всё, что Вы хотите узнать о погоде Александровский Завод!

Хотите узнать прогноз погоды Александровский Завод? Тогда Вам сюда: Погода Александровский Завод

Поиск расширенной информации на нашем сайте:

Другие новости

Новости СМИ2

Главная страница сайта

Новости сайта

03.07.2017

Напоминаем, что на нашем специализированном сайте Метеоцентр.Азия вы можете получить высокодетализированные автоматические прогнозы погоды по пунктам России, СНГ и мира в авиационном формате (включающие направление и скорость ветра, видимость, явления погоды, количество и форму облачности, нижнюю и верхнюю границу облачности).


Погода Александровский Завод - сегодня

Время (UTC), дата Ветер
(°,м/с) 
Видим.   Явления Облачность Т
(°С)
Тd
(°С)
f(%) Тe
(°С)
Pmin
(гПа)
dP
(гПа)
Po
(мм)
O2
(г/м3)
Тmin Tmax R s Состояние
почвы
09 16.05.18 010 (С) 20000 м    8/1 600 м верхняя 
[Cu hum|Ci fib]
+18.1 -6.7 18 +19  1006.9  -0.2  688  260           
15 16.05.18 210 (ЮЗ) 20000 м    3/0 верхняя 
[Ci fib]
+0.7 -6.5 59 1014.6  689  277           
18 16.05.18 210 (ЮЗ) 20000 м    3/0 верхняя 
[Ci fib]
+0.7 -6.5 59 1014.6  689  277           
21 16.05.18 200 (Ю) 20000 м    ясно 
+0.4 -2.2 83 +1  1014.3  -0.4  689  277           
03 17.05.18 220 (ЮЗ) 20000 м    5/5 600 м 
[Cu med, cong]
+18.7 -2.1 24 +20  1006.6  -1.5  688  259           
09 17.05.18 250 (З) 4{11}  20000 м    8/8 600 м кучево-дожд. 
[Cb cap]
+20.4 -1.7 23 +20  1003.3  -1  686  257           
15 17.05.18 220 (ЮЗ) 20000 м    3/0 средняя 
[Ac lent]
+3.2 -0.4 77 +2  1011.6  1.5  688  274           
18 17.05.18 220 (ЮЗ) 20000 м    ясно 
+0.5 -1.2 88 -1  1013.4  0.7  688  277           
21 17.05.18 210 (ЮЗ) 20000 м    ясно 
-0.3 -1.5 92 -1  1014.5  0.7  689  278           
03 18.05.18 290 (З) 20000 м    4/3 600 м верхняя 
[Cu hum|Ci fib]
+22.2 -4.6 16 +22  1006.7  -0.9  689  257           
06 18.05.18 220 (ЮЗ) 2{10}  20000 м    4/4 600 м 
[Cu hum]
+23.5 -5.2 14 +24  1004.9  -1.3  688  255           
09 18.05.18 260 (З) 20000 м    4/3 600 м верхняя 
[Cu hum|Ci fib]
+24.5 -5.8 13 +25  1003.4  -1.1  687  254           
15 18.05.18 190 (Ю) 20000 м    4/0 верхняя 
[Ci fib]
+15.6 -5.3 23 +16  1005.4  -0.9  686  262           
18 18.05.18 160 (Ю) 5{13}  20000 м    9/0 верхняя 
[Cs]
+17 -2.8 26 +17  1004.1  -0.7  686  260           
21 18.05.18 160 (Ю) 20000 м    8/0 средняя, верхняя 
[Ac lent|Ci fib]
+16.8 -2.7 26 +17  1003.6  -0.4  685  260           
21 19.05.18 200 (Ю) 20000 м    6/4 600 м кучево-дожд., верхняя 
[Cb cap|Ci ing]
+8.8 +7.1 89 +10  1010.1  1.7  688  267           
03 20.05.18 120 (ЮВ) 20000 м    4/4 600 м 
[Cu med, cong]
+21.1 +8.4 44 +22  1007.4  0.1  689  256           
06 20.05.18 170 (Ю) 20000 м  гроза без осадков  9/9 600 м кучево-дожд. 
[Cb cap]
+21.7 +6.3 37 +22  1005.7  -1.5  688  256           
15 20.05.18 070 (В) 20000 м    3/0 средняя 
[Ac lent]
+6 +5.8 99 +6  1012.9  0.1  689  271           
18 20.05.18 060 (СВ) 20000 м    ясно 
+5.3 +4.9 97 +5  1012.1  -1  689  271           
21 20.05.18 150 (ЮВ) 20000 м    3/0 средняя 
[Ac lent]
+12.3 +7.4 72 +12  1007  -2.4  687  263           
21 21.05.18 260 (З) 5{10}  20000 м    10/10 600 м кучево-дожд. 
[Cb cap]
+0.7 -4.8 67 -2  1004.2  -0.2  682  274           
03 22.05.18 270 (З) 6{12}  20000 м    8/5 600 м верхняя 
[Cu hum|Ci fib]
+5.2 -3.7 53 +3  999.6  -2.4  680  269           
15 22.05.18 210 (ЮЗ) 20000 м    8/8 600 м кучево-дожд. 
[Cb cap]
+2 -0.2 85 +1  994.1  -1.8  675  270           
18 22.05.18 180 (Ю) 20000 м  слаб. ливневой снег  10/10 600 м кучево-дожд. 
[Cb cap]
+0.7 +0.5 99 +1  993.6  -0.8             
Время (UTC), дата Ветер
(°,м/с) 
Видим.   Явления Облачность Т
(°С)
Тd
(°С)
f(%) Тe
(°С)
Pmin
(гПа)
dP
(гПа)
Po
(мм)
O2
(г/м3)
Тmin Tmax R s Состояние
почвы

Для получения пояснительной информации подведите курсор к названию столбца.

ПОГОДА Александровский Завод - архив

Всё, что Вы хотите узнать о погоде Александровский Завод - удобно и подробно!

Выберите нужную дату (начиная с 1 января 2015* года) и нажмите кнопку "Найти".
Будут отображены архивные сводки погоды по пункту Александровский Завод, начиная с указанной даты.


Отображать данные в формате CSV (для использования в таблицах Excel)


Внимание! Наш архив погоды предназначен исключительно для личного некоммерческого использования в познавательных целях. Если Вам необходимы официальные справки о состоянии погоды (для производственных, юридических, коммерческих и т.п. целей), обращайтесь в органы Росгидромета.

*Примечание: данная дата относится к архиву по метеостанциям СССР (Россия, СНГ, Балтия).
Архив по метеостанциям Зарубежной Европы и Азии (кроме Китая) хранится 10 дней, по другим регионам земного шара (Китай, Африка, Америка, Австралия, Океания) - 1 день.

Александровский Завод - район местоположения метеостанции


Название, широта, долгота, высота метеостанции:
Александровский Завод 50.9°ш. 117.9°д. 807 м над ур. моря [Российская Федерация]

Дополнительная информация

В oтличие oт бoльшинства пoгoдных сайтoв мы публикуем пoдрoбную метеoинфoрмацию в детальнoм прoфессиoнальнoм фoрмате.

Характеристики температуры и влажнoсти вoздуха измеряются на высoте 2 м в тени вдали oт зданий и деревьев.
Скoрoсть ветра измеряется на высoте 10 м (на урoвне рoста челoвека скoрoсть ветра ниже в 1.5-2 раза). Если метеoстанция нахoдится в гoрoде или в лесу, тo скoрoсть ветра занижена на 2-4 м/с пo сравнению с oткрытым местoм. Скoрoсть ветра над акватoриями крупных рек и oзёр, а также на вершинах хoлмoв на 2-5 м/с выше, чем в oбычных услoвиях.
Атмoсфернoе давление в разных тoчках местнoсти мoжет значительнo oтличаться oт давления на метеoстанции, в зависимoсти oт услoвий рельефа (при пoдъёме на 10 м давление пoнижается примернo на 1 мм рт.ст.).